DL9GKJ-13 Weather Reports


time (UTC)temp
C
wind
direction
speed
KPH
gust
KPH
rain 1hr
cm
rain 24hr
cm
rain mn
cm
humidity
%
barometer
mb
20260507124404 13 37 9.7 33.8 0.00 0.00 0.00 59 986.6
20260507124004 13 37 14.5 27.4 0.00 0.00 0.00 58 986.6
20260507123606 13 30 11.3 27.4 0.00 0.00 0.00 59 986.8
20260507123204 13 29 14.5 29.0 0.00 0.00 0.00 59 986.8
20260507122804 13 26 14.5 33.8 0.00 0.00 0.00 60 986.6
20260507122406 13 24 11.3 33.8 0.00 0.00 0.00 61 986.5
20260507122004 13 22 11.3 33.8 0.00 0.00 0.00 62 986.6
20260507121604 13 8 9.7 29.0 0.00 0.00 0.00 62 986.6
20260507121204 12 359 11.3 29.0 0.00 0.00 0.00 63 986.5
20260507120803 13 17 17.7 29.0 0.00 0.00 0.00 63 986.5
20260507120404 13 27 9.7 29.0 0.00 0.00 0.00 62 986.7
20260507120005 13 17 11.3 29.0 0.00 0.00 0.00 65 986.6
20260507115605 13 8 11.3 33.8 0.00 0.00 0.00 63 986.6
20260507115204 12 6 11.3 33.8 0.00 0.00 0.00 64 986.5
20260507114804 12 23 11.3 30.6 0.00 0.00 0.00 64 986.6
20260507114403 12 29 9.7 29.0 0.00 0.00 0.00 62 986.6
20260507114004 12 28 9.7 30.6 0.00 0.00 0.00 64 986.5
20260507113604 12 17 14.5 30.6 0.00 0.00 0.00 64 986.5
20260507113205 13 28 6.4 29.0 0.00 0.00 0.00 63 986.5
20260507112804 13 29 11.3 35.4 0.00 0.00 0.00 63 986.4
20260507112403 13 41 14.5 35.4 0.00 0.00 0.00 63 986.5
20260507112004 13 22 11.3 35.4 0.00 0.00 0.00 63 986.5
20260507111604 12 9 6.4 33.8 0.00 0.00 0.00 64 986.3
20260507110806 12 30 11.3 29.0 0.00 0.00 0.00 65 986.3
20260507110404 12 52 6.4 29.0 0.00 0.00 0.00 66 986.4
20260507110004 12 30 9.7 29.0 0.00 0.00 0.00 65 986.3
20260507105604 12 11 11.3 33.8 0.00 0.00 0.00 66 986.3
20260507105204 12 5 6.4 33.8 0.00 0.00 0.00 67 986.2
20260507104804 12 13 17.7 35.4 0.00 0.00 0.00 68 986.1
20260507104405 12 20 11.3 35.4 0.00 0.00 0.00 68 986.3
20260507104004 12 14 9.7 27.4 0.00 0.00 0.00 67 986.1
20260507103604 12 24 11.3 30.6 0.00 0.00 0.00 67 986.2
20260507103206 12 19 14.5 30.6 0.00 0.00 0.00 68 986.2
20260507102804 12 17 11.3 30.6 0.00 0.00 0.00 68 986.1
20260507102404 12 6 6.4 27.4 0.00 0.00 0.00 68 986.2
20260507102006 12 16 14.5 27.4 0.00 0.00 0.00 67 986.1
20260507101606 12 29 14.5 27.4 0.00 0.00 0.00 69 986.0
20260507101204 12 31 6.4 30.6 0.00 0.00 0.00 68 986.1
20260507100803 12 25 11.3 30.6 0.00 0.00 0.00 70 986.0
20260507100404 12 16 11.3 40.2 0.00 0.00 0.00 69 985.9
20260507095603 12 35 11.3 40.2 0.00 0.00 0.00 71 985.9
20260507095204 12 31 4.8 19.3 0.00 0.00 0.00 72 985.8
20260507094804 12 11 6.4 30.6 0.00 0.00 0.00 72 985.8
20260507094403 12 13 9.7 30.6 0.00 0.00 0.00 73 985.8
20260507094004 12 18 11.3 27.4 0.00 0.00 0.00 73 985.8
20260507093604 12 20 6.4 27.4 0.00 0.00 0.00 74 985.8
20260507092804 12 26 9.7 27.4 0.00 0.00 0.00 74 985.6
20260507092404 12 40 9.7 27.4 0.00 0.00 0.00 74 985.6
20260507092006 12 49 11.3 29.0 0.00 0.00 0.00 73 985.6
20260507091203 12 22 4.8 29.0 0.00 0.00 0.00 74 985.6
20260507090804 11 18 6.4 30.6 0.00 0.00 0.00 74 985.5
20260507090404 11 25 14.5 30.6 0.00 0.00 0.00 74 985.6
20260507085206 11 58 11.3 22.5 0.00 0.00 0.00 74 985.5
20260507084804 11 35 11.3 22.5 0.00 0.00 0.00 75 985.4
20260507084404 11 23 1.6 22.5 0.00 0.00 0.00 77 985.3
20260507084006 11 33 11.3 37.0 0.00 0.00 0.00 75 985.4
20260507083604 11 37 11.3 37.0 0.00 0.00 0.00 76 985.4
20260507083204 11 53 4.8 24.1 0.00 0.00 0.00 75 985.3
20260507082803 11 62 6.4 29.0 0.00 0.00 0.00 77 985.3
20260507081206 11 27 11.3 22.5 0.00 0.00 0.00 75 985.2
20260507080804 11 26 6.4 22.5 0.00 0.00 0.00 76 985.2
20260507080404 11 20 11.3 22.5 0.00 0.00 0.00 74 985.1
20260507080004 11 24 9.7 19.3 0.00 0.00 0.00 75 985.1
20260507075606 11 23 9.7 22.5 0.00 0.00 0.00 75 985.1
20260507075204 10 26 1.6 22.5 0.00 0.00 0.00 76 984.9
20260507074806 10 39 9.7 22.5 0.00 0.00 0.00 76 985.0
20260507074404 10 64 4.8 30.6 0.00 0.00 0.00 76 985.0
20260507074004 10 52 6.4 30.6 0.00 0.00 0.00 78 985.1
20260507073604 9 30 4.8 30.6 0.00 0.00 0.00 79 984.9
20260507073204 9 16 6.4 27.4 0.00 0.00 0.00 78 985.0
20260507072804 9 25 11.3 29.0 0.00 0.00 0.00 80 984.8
20260507072404 9 40 9.7 29.0 0.00 0.00 0.00 79 984.8
20260507072004 9 41 6.4 29.0 0.00 0.00 0.00 79 984.8
20260507071604 9 60 11.3 29.0 0.00 0.00 0.00 79 984.7
20260507071204 9 56 11.3 29.0 0.00 0.00 0.00 80 984.9
20260507070804 9 45 9.7 30.6 0.00 0.00 0.00 79 984.9
20260507070406 9 38 11.3 30.6 0.00 0.00 0.00 81 984.7
20260507070009 9 40 14.5 19.3 0.00 0.00 0.00 81 984.8
20260507065204 9 21 4.8 17.7 0.00 0.00 0.00 81 984.7
20260507064804 9 47 6.4 22.5 0.00 0.00 0.00 81 984.6
20260507064404 9 40 9.7 30.6 0.00 0.00 0.00 82 984.6
20260507064004 8 30 11.3 30.6 0.00 0.00 0.00 83 984.6
20260507063604 8 40 9.7 19.3 0.00 0.00 0.00 84 984.7
20260507062404 7 26 4.8 16.1 0.00 0.00 0.00 86 984.5
20260507062004 7 39 4.8 16.1 0.00 0.00 0.00 87 984.3
20260507061203 7 32 4.8 19.3 0.00 0.00 0.00 90 984.4
20260507060806 7 15 6.4 19.3 0.00 0.00 0.00 90 984.3
20260507060404 7 22 1.6 16.1 0.00 0.00 0.00 90 984.3
20260507060004 7 33 1.6 16.1 0.00 0.00 0.00 90 984.4
20260507055604 7 53 6.4 16.1 0.00 0.00 0.00 90 984.2
20260507055204 7 42 4.8 17.7 0.00 0.00 0.00 90 984.1
20260507054404 7 37 9.7 17.7 0.00 0.00 0.00 90 984.0
20260507054004 7 52 0.0 22.5 0.00 0.00 0.00 90 984.0
20260507053606 7 45 4.8 22.5 0.00 0.00 0.00 90 984.0
20260507053204 7 32 4.8 22.5 0.00 0.00 0.00 90 983.9
20260507052407 7 23 1.6 17.7 0.00 0.00 0.00 91 983.8
20260507052003 7 42 9.7 19.3 0.00 0.00 0.00 91 983.9
20260507051604 7 39 4.8 19.3 0.00 0.00 0.00 91 983.9
20260507051206 6 54 6.4 17.7 0.00 0.00 0.00 91 983.7
20260507050804 6 70 9.7 17.7 0.00 0.00 0.00 91 983.8
20260507050404 6 74 6.4 17.7 0.00 0.00 0.00 92 983.5
20260507050005 6 46 1.6 17.7 0.00 0.00 0.00 92 983.5
20260507045606 6 27 1.6 16.1 0.00 0.00 0.00 92 983.5
20260507044804 6 29 6.4 16.1 0.00 0.00 0.00 92 983.4
20260507043604 6 54 1.6 24.1 0.00 0.00 0.00 93 983.3
20260507043204 6 57 4.8 24.1 0.00 0.00 0.00 92 983.1
20260507042804 6 41 11.3 24.1 0.00 0.00 0.00 93 983.2
20260507042404 6 51 1.6 16.1 0.00 0.00 0.00 93 983.1
20260507042004 6 41 6.4 16.1 0.00 0.00 0.00 93 983.0
20260507041604 6 51 1.6 12.9 0.00 0.00 0.00 93 983.2
20260507041203 6 67 0.0 19.3 0.00 0.00 0.00 93 983.2
20260507040806 6 81 1.6 19.3 0.00 0.00 0.00 93 983.0
20260507040404 6 86 6.4 22.5 0.00 0.00 0.00 93 983.1
20260507035204 6 51 1.6 17.7 0.00 0.00 0.00 94 982.9
20260507034804 6 45 6.4 17.7 0.00 0.00 0.00 94 982.9
20260507034404 6 18 0.0 19.3 0.00 0.00 0.00 94 982.9
20260507034004 6 14 6.4 19.3 0.00 0.00 0.00 94 982.9
20260507033607 6 21 6.4 27.4 0.00 0.00 0.00 94 982.9
20260507033204 6 29 4.8 27.4 0.00 0.00 0.00 94 982.9
20260507032804 6 36 1.6 22.5 0.00 0.00 0.00 94 982.8
20260507032404 6 41 4.8 22.5 0.00 0.00 0.00 94 982.9
20260507032005 6 36 4.8 33.8 0.00 0.00 0.00 94 982.9
20260507031604 6 37 9.7 33.8 0.00 0.00 0.00 94 982.9
20260507031204 6 64 4.8 33.8 0.00 0.00 0.00 95 982.7
20260507030805 6 57 4.8 22.5 0.00 0.00 0.00 95 982.7
20260507030404 6 33 6.4 22.5 0.00 0.00 0.00 95 982.6
20260507025604 6 10 4.8 17.7 0.00 0.00 0.00 95 982.6
20260507025206 6 26 6.4 22.5 0.00 0.00 0.00 95 982.7
20260507024804 6 32 9.7 29.0 0.00 0.00 0.00 95 982.7
20260507024404 6 27 9.7 29.0 0.00 0.00 0.00 95 982.4
20260507023604 6 16 6.4 29.0 0.00 0.00 0.00 95 982.5
20260507023203 6 36 0.0 17.7 0.00 0.00 0.00 96 982.3
20260507022807 6 46 6.4 17.7 0.00 0.00 0.00 96 982.4
20260507022404 6 37 6.4 17.7 0.00 0.00 0.00 96 982.4
20260507022004 6 39 9.7 16.1 0.00 0.00 0.00 96 982.6
20260507021604 6 38 6.4 16.1 0.00 0.00 0.00 96 982.5
20260507021206 6 46 0.0 19.3 0.00 0.00 0.00 96 982.4
20260507020804 6 37 4.8 19.3 0.00 0.00 0.00 96 982.4
20260507020404 6 26 1.6 19.3 0.00 0.00 0.00 96 982.4
20260507015603 6 35 4.8 16.1 0.00 0.00 0.00 96 982.4
20260507015204 6 62 4.8 16.1 0.00 0.00 0.00 96 982.2
20260507014804 6 58 6.4 16.1 0.00 0.00 0.00 96 982.2
20260507014403 6 33 4.8 12.9 0.00 0.00 0.00 96 982.2
20260507014004 6 21 1.6 12.9 0.00 0.00 0.00 96 982.2
20260507013604 6 24 4.8 17.7 0.00 0.00 0.00 96 982.2
20260507013204 6 10 4.8 17.7 0.00 0.00 0.00 96 982.2
20260507012806 6 6 11.3 17.7 0.00 0.00 0.00 96 982.1
20260507012004 6 45 4.8 24.1 0.00 0.00 0.00 96 981.9
20260507011604 6 38 9.7 24.1 0.00 0.00 0.00 95 982.1
20260507011203 6 27 1.6 27.4 0.00 0.00 0.00 95 982.0
20260507010004 6 13 4.8 17.7 0.00 0.00 0.00 95 982.1
20260507005603 6 13 0.0 17.7 0.00 0.00 0.00 95 982.2
20260507005204 6 12 4.8 12.9 0.00 0.00 0.00 95 982.2
20260507004806 6 19 1.6 19.3 0.00 0.00 0.00 95 982.1
20260507004403 6 32 4.8 19.3 0.00 0.00 0.00 95 982.1
20260507003207 6 37 1.6 22.5 0.00 0.00 0.00 95 982.2
20260507002804 6 24 6.4 22.5 0.00 0.00 0.00 95 982.1
20260507002404 6 25 1.6 22.5 0.00 0.00 0.00 95 982.1
20260507002008 6 22 4.8 22.5 0.00 0.00 0.00 95 982.0
20260507001604 6 9 11.3 22.5 0.00 0.00 0.00 95 982.1
20260507001203 6 3 11.3 19.3 0.00 0.00 0.00 95 982.2
20260507000804 6 1 6.4 16.1 0.00 0.00 0.00 96 982.0
20260507000405 6 13 6.4 16.1 0.00 0.00 0.00 96 982.0
20260507000005 6 25 4.8 16.1 0.00 0.00 0.00 96 982.0
20260506235604 6 29 4.8 16.1 0.00 0.00 0.00 96 981.9
20260506234804 6 56 4.8 17.7 0.00 0.00 0.00 95 981.9
20260506234404 6 62 6.4 19.3 0.00 0.00 0.00 95 981.9
20260506234006 6 60 1.6 19.3 0.00 0.00 0.00 95 982.1
20260506233204 6 56 4.8 17.7 0.00 0.00 0.00 96 981.9
20260506232806 6 35 0.0 16.1 0.00 0.00 0.00 96 981.9
20260506232403 6 35 1.6 16.1 0.00 0.00 0.00 96 981.9
20260506232004 6 44 4.8 16.1 0.00 0.00 0.00 96 981.8
20260506231604 6 51 6.4 16.1 0.00 0.00 0.00 96 981.9
20260506231206 6 28 4.8 16.1 0.00 0.00 0.00 96 981.9
20260506230804 6 26 1.6 12.9 0.00 0.00 0.00 96 981.9
20260506230004 6 38 1.6 24.1 0.00 0.00 0.00 95 981.8
20260506225604 7 43 0.0 24.1 0.00 0.00 0.00 95 981.8
20260506225206 7 66 6.4 24.1 0.00 0.00 0.00 95 981.6
20260506224803 7 53 1.6 24.1 0.00 0.00 0.00 95 981.6
20260506224404 7 51 1.6 24.1 0.00 0.00 0.00 94 981.5
20260506224006 7 48 9.7 24.1 0.00 0.00 0.00 94 981.6
20260506223204 7 43 6.4 19.3 0.00 0.00 0.00 94 981.4
20260506222806 7 29 1.6 12.9 0.00 0.00 0.00 94 981.4
20260506222404 7 18 1.6 12.9 0.00 0.00 0.00 94 981.4
20260506222004 7 21 0.0 16.1 0.00 0.00 0.00 94 981.5
20260506221206 7 25 6.4 22.5 0.00 0.00 0.00 93 981.4
20260506220804 7 31 1.6 22.5 0.00 0.00 0.00 93 981.4
20260506220404 7 44 4.8 12.9 0.00 0.00 0.00 93 981.3
20260506220005 7 64 1.6 17.7 0.00 0.00 0.00 93 981.3
20260506215604 7 56 4.8 19.3 0.00 0.00 0.00 92 981.3
20260506215204 7 58 6.4 22.5 0.00 0.00 0.00 92 981.3
20260506214804 7 65 4.8 22.5 0.00 0.00 0.00 92 981.2
20260506214404 7 48 11.3 22.5 0.00 0.00 0.00 92 981.3
20260506214006 7 30 0.0 19.3 0.00 0.00 0.00 92 981.4
20260506213604 7 41 9.7 22.5 0.00 0.00 0.00 92 981.2
20260506213203 7 51 11.3 22.5 0.00 0.00 0.00 92 981.2
20260506212404 7 54 6.4 35.4 0.00 0.00 0.00 92 981.3
20260506212003 7 39 9.7 35.4 0.00 0.00 0.00 91 981.3
20260506211604 7 52 9.7 24.1 0.00 0.00 0.00 91 981.3
20260506211204 7 71 9.7 22.5 0.00 0.00 0.00 92 981.2
20260506210803 7 73 6.4 19.3 0.00 0.00 0.00 92 981.1
20260506210004 7 38 4.8 19.3 0.00 0.00 0.00 92 981.1
20260506205604 8 56 6.4 22.5 0.00 0.00 0.00 92 981.0
20260506204806 8 39 11.3 24.1 0.00 0.00 0.00 92 981.0
20260506204404 8 41 9.7 29.0 0.00 0.00 0.00 92 981.1
20260506204004 8 61 6.4 29.0 0.00 0.00 0.00 92 981.1
20260506203606 8 60 9.7 29.0 0.00 0.00 0.00 92 981.0
20260506203204 8 40 11.3 29.0 0.00 0.00 0.00 92 981.1
20260506202406 8 38 6.4 30.6 0.00 0.00 0.00 92 981.1
20260506202003 8 49 4.8 29.0 0.00 0.00 0.00 92 981.2
20260506201607 8 53 6.4 29.0 0.00 0.00 0.00 92 981.1
20260506201204 8 69 11.3 29.0 0.00 0.00 0.00 92 981.0
20260506200803 8 67 9.7 22.5 0.00 0.00 0.00 92 981.0
20260506200004 8 39 4.8 27.4 0.00 0.00 0.00 92 980.8
20260506195604 8 45 4.8 27.4 0.00 0.00 0.00 92 980.8
20260506195204 8 43 11.3 27.4 0.00 0.00 0.00 92 980.6
20260506194807 8 51 6.4 22.5 0.00 0.00 0.00 92 980.4
20260506194404 8 29 6.4 33.8 0.00 0.00 0.00 92 980.5
20260506194004 8 36 4.8 33.8 0.00 0.00 0.00 91 980.6
20260506192804 8 27 9.7 35.4 0.00 0.00 0.00 91 980.7
20260506192404 8 51 16.1 35.4 0.00 0.00 0.00 91 980.6
20260506192004 8 51 6.4 33.8 0.00 0.00 0.00 92 980.7
20260506191605 8 30 9.7 29.0 0.00 0.00 0.00 92 980.6
20260506191204 8 9 6.4 30.6 0.00 0.00 0.00 92 980.6
20260506190804 8 22 11.3 30.6 0.00 0.00 0.00 92 980.6
20260506190405 8 22 4.8 30.6 0.00 0.00 0.00 92 980.5
20260506190005 8 35 9.7 24.1 0.00 0.00 0.00 92 980.5
20260506185604 8 44 11.3 24.1 0.00 0.00 0.00 92 980.4
20260506184404 8 49 9.7 37.0 0.00 0.00 0.00 92 980.2
20260506183604 9 41 9.7 35.4 0.00 0.00 0.00 92 979.9
20260506183204 9 35 6.4 33.8 0.00 0.00 0.00 92 979.9
20260506182804 9 27 16.1 33.8 0.00 0.00 0.00 92 980.1
20260506182404 9 23 14.5 27.4 0.00 0.00 0.00 92 979.9
20260506182006 9 28 6.4 29.0 0.00 0.00 0.00 92 979.9
20260506181603 9 51 4.8 29.0 0.00 0.00 0.00 92 979.7
20260506180806 10 59 14.5 27.4 0.00 0.00 0.00 91 979.8
20260506180404 10 53 4.8 27.4 0.00 0.00 0.00 92 979.7
20260506180005 10 46 6.4 29.0 0.00 0.00 0.00 91 979.7
20260506175604 10 53 16.1 29.0 0.00 0.00 0.00 91 979.7
20260506174804 10 45 4.8 29.0 0.00 0.00 0.00 90 979.5
20260506174404 10 29 9.7 37.0 0.00 0.00 0.00 90 979.5
20260506173603 10 24 11.3 37.0 0.00 0.00 0.00 89 979.7
20260506173204 10 36 9.7 29.0 0.00 0.00 0.00 88 979.6
20260506172404 10 36 9.7 40.2 0.00 0.00 0.00 87 979.3
20260506172004 10 37 16.1 40.2 0.00 0.00 0.00 87 979.3
20260506171204 10 21 9.7 22.5 0.00 0.00 0.00 88 979.3
20260506170804 10 15 6.4 24.1 0.00 0.00 0.00 88 979.2
20260506170404 10 25 6.4 24.1 0.00 0.00 0.00 87 979.1
20260506170004 10 28 4.8 24.1 0.00 0.00 0.00 87 979.2
20260506165604 10 18 4.8 24.1 0.00 0.00 0.00 87 979.1
20260506165204 10 1 6.4 11.3 0.00 0.00 0.00 88 979.1
20260506164806 10 6 6.4 11.3 0.00 0.00 0.00 88 979.2
20260506164404 10 15 6.4 19.3 0.00 0.00 0.00 88 979.1
20260506164004 10 23 0.0 19.3 0.00 0.00 0.00 88 979.2
20260506163606 10 12 4.8 27.4 0.00 0.00 0.00 88 979.1
20260506163203 10 17 9.7 27.4 0.00 0.00 0.00 89 979.1
20260506162804 10 24 9.7 27.4 0.00 0.00 0.00 89 979.1
20260506162404 10 38 9.7 35.4 0.00 0.00 0.00 89 979.2
20260506161606 10 24 6.4 30.6 0.00 0.00 0.00 89 979.1
20260506161204 11 16 9.7 30.6 0.00 0.00 0.00 90 979.1
20260506160403 11 17 16.1 30.6 0.00 0.00 0.00 89 979.0
20260506160004 11 25 9.7 33.8 0.00 0.00 0.00 90 978.9
20260506155604 11 6 6.4 33.8 0.00 0.00 0.00 90 978.9
20260506155204 11 19 9.7 33.8 0.00 0.00 0.00 90 979.1
20260506154806 11 20 11.3 33.8 0.00 0.00 0.00 90 978.9
20260506154404 11 43 16.1 33.8 0.00 0.00 0.00 89 979.1
20260506154004 11 37 11.3 24.1 0.00 0.00 0.00 89 979.0
20260506153604 11 32 6.4 24.1 0.00 0.00 0.00 89 979.1
20260506153204 11 16 4.8 35.4 0.00 0.00 0.00 90 979.0
20260506152804 11 21 14.5 35.4 0.00 0.00 0.00 89 979.0
20260506152404 11 28 6.4 35.4 0.00 0.00 0.00 89 979.1
20260506152006 11 26 6.4 24.1 0.00 0.00 0.00 89 979.1
20260506151204 11 46 6.4 24.1 0.00 0.00 0.00 89 979.1
20260506150806 11 25 6.4 17.7 0.00 0.00 0.00 89 979.2
20260506150403 11 18 6.4 19.3 0.00 0.00 0.00 89 979.2
20260506150004 11 15 4.8 27.4 0.00 0.00 0.00 89 979.2
20260506145604 11 6 9.7 27.4 0.00 0.00 0.00 89 979.2
20260506145206 11 6 6.4 27.4 0.00 0.00 0.00 88 979.2
20260506144804 11 2 14.5 27.4 0.00 0.00 0.00 88 979.2
20260506144404 11 10 9.7 27.4 0.00 0.00 0.00 88 979.0
20260506144006 11 9 6.4 29.0 0.00 0.00 0.00 88 979.1
20260506143604 11 9 9.7 30.6 0.00 0.00 0.00 88 979.2
20260506143204 11 9 14.5 30.6 0.00 0.00 0.00 89 979.0
20260506142804 11 11 11.3 19.3 0.00 0.00 0.00 87 979.1
20260506142404 11 3 6.4 27.4 0.00 0.00 0.00 87 979.2
20260506142004 11 9 6.4 27.4 0.00 0.00 0.00 87 979.1
20260506141204 11 12 11.3 27.4 0.00 0.00 0.00 87 979.2
20260506140804 11 8 9.7 24.1 0.00 0.00 0.00 87 979.1
20260506140404 11 42 9.7 27.4 0.00 0.00 0.00 87 979.1
20260506140004 11 46 9.7 27.4 0.00 0.00 0.00 87 979.2
20260506135607 11 46 11.3 24.1 0.00 0.00 0.00 87 979.1
20260506135204 11 41 6.4 19.3 0.00 0.00 0.00 87 979.2
20260506134806 11 48 1.6 27.4 0.00 0.00 0.00 86 979.0
20260506134404 11 33 1.6 27.4 0.00 0.00 0.00 86 979.1
20260506134006 11 40 14.5 29.0 0.00 0.00 0.00 87 979.1
20260506132404 11 46 4.8 30.6 0.00 0.00 0.00 86 979.0
20260506132006 11 18 4.8 35.4 0.00 0.00 0.00 85 979.0
20260506131603 11 5 14.5 35.4 0.00 0.00 0.00 85 979.0
20260506131204 11 5 9.7 29.0 0.00 0.00 0.00 85 979.0
20260506130406 11 24 4.8 33.8 0.00 0.00 0.00 85 978.9
20260506130005 11 52 11.3 33.8 0.00 0.00 0.00 85 979.0
20260506125604 11 54 16.1 27.4 0.00 0.00 0.00 84 978.9
20260506125204 12 50 11.3 29.0 0.00 0.00 0.00 84 978.9
20260506124806 12 33 4.8 29.0 0.00 0.00 0.00 85 978.9